• In Netherlands
  • List of Countries
  • For 7 days
  • Water Temperature
  • Satellite Maps
  • Weather Map
  • Weather Widgets
  • user-avatar
    Login

    Hourly Weather Adelaide

    Today, 21 September, Thursday

    Time Temperature Precipitation Wind Pressure Humidity
    00:00 +19°C° 0 mm 6 mps 753 mmHg 23%
    01:00 +19°C° 0 mm 6 mps 753 mmHg 23%
    02:00 +19°C° 0 mm 6 mps 753 mmHg 23%
    03:00 +19°C° 0 mm 6 mps 753 mmHg 24%
    04:00 +17°C° 0 mm 5 mps 753 mmHg 29%
    05:00 +16°C° 0 mm 5 mps 753 mmHg 35%
    06:00 +15°C° 0 mm 4 mps 753 mmHg 41%
    07:00 +17°C° 0 mm 4 mps 754 mmHg 47%
    08:00 +18°C° 0 mm 4 mps 754 mmHg 54%
    09:00 +19°C° 0 mm 4 mps 754 mmHg 58%
    10:00 +20°C° 0 mm 4 mps 754 mmHg 57%
    11:00 +20°C° 0 mm 4 mps 754 mmHg 56%
    12:00 +21°C° 0 mm 4 mps 754 mmHg 56%
    13:00 +21°C° 0 mm 3 mps 753 mmHg 56%
    14:00 +20°C° 0 mm 3 mps 753 mmHg 57%
    15:00 +19°C° 0 mm 2 mps 753 mmHg 60%
    16:00 +17°C° 0 mm 2 mps 753 mmHg 65%
    17:00 +16°C° 0 mm 2 mps 754 mmHg 70%
    18:00 +14°C° 0 mm 2 mps 754 mmHg 76%
    19:00 +14°C° 0 mm 2 mps 754 mmHg 78%
    20:00 +13°C° 0 mm 2 mps 754 mmHg 81%
    21:00 +12°C° 0 mm 2 mps 755 mmHg 83%
    22:00 +12°C° 0 mm 1 mps 755 mmHg 82%
    23:00 +12°C° 0 mm 1 mps 754 mmHg 82%

    Tomorrow, 22 September, Friday

    Time Temperature Precipitation Wind Pressure Humidity
    00:00 +11°C° 0 mm 1 mps 754 mmHg 81%
    01:00 +10°C° 0 mm 2 mps 754 mmHg 81%
    02:00 +10°C° 0 mm 2 mps 753 mmHg 80%
    03:00 +10°C° 0 mm 3 mps 753 mmHg 80%
    04:00 +10°C° 0 mm 3 mps 753 mmHg 80%
    05:00 +11°C° 0 mm 4 mps 752 mmHg 79%
    06:00 +11°C° 0 mm 4 mps 752 mmHg 79%
    07:00 +14°C° 0 mm 4 mps 752 mmHg 71%
    08:00 +17°C° 0 mm 5 mps 751 mmHg 64%
    09:00 +21°C° 0 mm 5 mps 751 mmHg 56%
    10:00 +23°C° 0 mm 5 mps 751 mmHg 50%
    11:00 +26°C° 0 mm 5 mps 750 mmHg 44%
    12:00 +28°C° 0 mm 5 mps 750 mmHg 38%
    13:00 +28°C° 0 mm 5 mps 749 mmHg 40%
    14:00 +28°C° 0 mm 5 mps 749 mmHg 42%
    15:00 +28°C° 0 mm 4 mps 748 mmHg 44%
    16:00 +26°C° 0 mm 4 mps 748 mmHg 49%
    17:00 +24°C° 0 mm 3 mps 748 mmHg 53%
    18:00 +22°C° 0 mm 3 mps 748 mmHg 57%
    19:00 +21°C° 0 mm 3 mps 748 mmHg 62%
    20:00 +19°C° 0 mm 3 mps 749 mmHg 67%
    21:00 +18°C° 0 mm 2 mps 749 mmHg 71%
    22:00 +18°C° 0 mm 2 mps 748 mmHg 74%
    23:00 +17°C° 0 mm 2 mps 748 mmHg 77%

    Day after tomorrow, 23 September, Saturday

    Time Temperature Precipitation Wind Pressure Humidity
    00:00 +16°C° 0 mm 2 mps 747 mmHg 80%
    01:00 +16°C° 0 mm 2 mps 746 mmHg 78%
    02:00 +16°C° 0 mm 2 mps 745 mmHg 75%
    03:00 +17°C° 0 mm 3 mps 744 mmHg 73%
    04:00 +17°C° 0 mm 3 mps 744 mmHg 72%
    05:00 +17°C° 0 mm 3 mps 744 mmHg 71%
    06:00 +17°C° 0 mm 3 mps 743 mmHg 71%
    07:00 +18°C° 0 mm 4 mps 744 mmHg 69%
    08:00 +19°C° 0 mm 5 mps 744 mmHg 68%
    09:00 +20°C° 0 mm 6 mps 745 mmHg 66%
    10:00 +20°C° 0.1 mm 7 mps 745 mmHg 64%
    11:00 +20°C° 0.1 mm 8 mps 746 mmHg 61%
    12:00 +19°C° 0.1 mm 10 mps 746 mmHg 58%
    13:00 +19°C° 0.1 mm 10 mps 746 mmHg 57%
    14:00 +19°C° 0.1 mm 9 mps 746 mmHg 55%
    15:00 +19°C° 0.1 mm 9 mps 746 mmHg 53%
    16:00 +17°C° 0.1 mm 9 mps 746 mmHg 57%
    17:00 +16°C° 0.1 mm 8 mps 746 mmHg 62%
    18:00 +15°C° 0.1 mm 7 mps 747 mmHg 66%
    19:00 +15°C° 0.3 mm 8 mps 747 mmHg 69%
    20:00 +13°C° 0.3 mm 9 mps 748 mmHg 72%
    21:00 +13°C° 0.3 mm 9 mps 748 mmHg 76%
    22:00 +12°C° 0.3 mm 9 mps 748 mmHg 78%
    23:00 +12°C° 0.3 mm 10 mps 747 mmHg 79%

    24 September, Sunday

    Time Temperature Precipitation Wind Pressure Humidity
    00:00 +12°C° 0.3 mm 10 mps 747 mmHg 81%
    01:00 +12°C° 0.2 mm 10 mps 747 mmHg 80%
    02:00 +12°C° 0.2 mm 10 mps 747 mmHg 78%
    03:00 +12°C° 0.2 mm 10 mps 746 mmHg 77%
    04:00 +12°C° 0.1 mm 9 mps 747 mmHg 77%
    05:00 +12°C° 0.1 mm 9 mps 747 mmHg 76%
    06:00 +12°C° 0.1 mm 9 mps 748 mmHg 76%
    07:00 +12°C° 0.2 mm 9 mps 748 mmHg 74%
    08:00 +13°C° 0.2 mm 9 mps 749 mmHg 72%
    09:00 +15°C° 0.2 mm 9 mps 750 mmHg 69%
    10:00 +15°C° 0.2 mm 9 mps 750 mmHg 66%
    11:00 +16°C° 0.2 mm 9 mps 750 mmHg 62%
    12:00 +17°C° 0.2 mm 9 mps 750 mmHg 58%
    13:00 +17°C° 0.1 mm 8 mps 750 mmHg 58%
    14:00 +17°C° 0.1 mm 8 mps 750 mmHg 57%
    15:00 +17°C° 0.1 mm 8 mps 750 mmHg 57%
    16:00 +16°C° 0.1 mm 7 mps 750 mmHg 61%
    17:00 +15°C° 0.1 mm 6 mps 751 mmHg 65%
    18:00 +13°C° 0.1 mm 6 mps 751 mmHg 69%
    19:00 +13°C° 0.1 mm 6 mps 752 mmHg 71%
    20:00 +13°C° 0.1 mm 6 mps 752 mmHg 74%
    21:00 +11°C° 0.1 mm 7 mps 753 mmHg 76%
    22:00 +11°C° 0.1 mm 6 mps 753 mmHg 76%
    23:00 +11°C° 0.1 mm 6 mps 752 mmHg 77%

    25 September, Monday

    Time Temperature Precipitation Wind Pressure Humidity
    00:00 +11°C° 0.1 mm 6 mps 752 mmHg 77%
    01:00 +10°C° 0 mm 6 mps 752 mmHg 78%
    02:00 +10°C° 0 mm 5 mps 752 mmHg 79%
    03:00 +10°C° 0 mm 5 mps 752 mmHg 80%
    04:00 +10°C° 0 mm 5 mps 752 mmHg 80%
    05:00 +11°C° 0 mm 4 mps 753 mmHg 80%
    06:00 +11°C° 0 mm 4 mps 753 mmHg 80%
    07:00 +12°C° 0 mm 4 mps 754 mmHg 73%
    08:00 +14°C° 0 mm 4 mps 754 mmHg 66%
    09:00 +15°C° 0 mm 4 mps 754 mmHg 58%
    10:00 +17°C° 0 mm 4 mps 754 mmHg 56%
    11:00 +17°C° 0 mm 4 mps 754 mmHg 54%
    12:00 +18°C° 0 mm 4 mps 754 mmHg 52%
    13:00 +18°C° 0 mm 4 mps 754 mmHg 52%
    14:00 +18°C° 0 mm 4 mps 754 mmHg 53%
    15:00 +18°C° 0 mm 4 mps 753 mmHg 53%
    16:00 +16°C° 0 mm 3 mps 754 mmHg 59%
    17:00 +14°C° 0 mm 3 mps 754 mmHg 65%
    18:00 +13°C° 0 mm 2 mps 755 mmHg 71%
    19:00 +13°C° 0 mm 2 mps 755 mmHg 73%
    20:00 +12°C° 0 mm 2 mps 755 mmHg 76%
    21:00 +11°C° 0 mm 1 mps 756 mmHg 79%
    22:00 +10°C° 0 mm 2 mps 755 mmHg 79%
    23:00 +10°C° 0 mm 2 mps 755 mmHg 78%

    26 September, Tuesday

    Time Temperature Precipitation Wind Pressure Humidity
    00:00 +10°C° 0 mm 2 mps 755 mmHg 78%
    01:00 +10°C° 0.1 mm 2 mps 754 mmHg 79%
    02:00 +10°C° 0.1 mm 2 mps 754 mmHg 79%
    03:00 +10°C° 0.1 mm 2 mps 754 mmHg 80%
    04:00 +10°C° 0.1 mm 2 mps 754 mmHg 81%
    05:00 +10°C° 0.1 mm 2 mps 755 mmHg 83%
    06:00 +10°C° 0.1 mm 3 mps 755 mmHg 84%
    07:00 +11°C° 0.1 mm 3 mps 755 mmHg 80%
    08:00 +13°C° 0.1 mm 3 mps 754 mmHg 76%
    09:00 +14°C° 0.1 mm 3 mps 754 mmHg 73%
    10:00 +14°C° 0.4 mm 3 mps 754 mmHg 75%
    11:00 +15°C° 0.4 mm 2 mps 754 mmHg 77%
    12:00 +15°C° 0.4 mm 2 mps 753 mmHg 80%
    13:00 +15°C° 0.3 mm 2 mps 753 mmHg 80%
    14:00 +14°C° 0.3 mm 3 mps 753 mmHg 80%
    15:00 +14°C° 0.3 mm 3 mps 753 mmHg 80%
    16:00 +14°C° 0.1 mm 3 mps 754 mmHg 83%
    17:00 +13°C° 0.1 mm 4 mps 754 mmHg 86%
    18:00 +12°C° 0.1 mm 5 mps 754 mmHg 89%
    19:00 +12°C° 0 mm 4 mps 755 mmHg 89%
    20:00 +11°C° 0 mm 4 mps 755 mmHg 88%
    21:00 +11°C° 0 mm 4 mps 756 mmHg 88%
    22:00 +10°C° 0 mm 3 mps 756 mmHg 88%
    23:00 +10°C° 0 mm 3 mps 756 mmHg 88%
    Show more